User: anonymous   Login
Location: Cape Cod Imaging Station
(41.7417°N, 70.1583°W)
Time: 19:34:12
(UTC-05:00)
Language:

Cosmos 1508 Rocket - Orbit

View from above orbital plane
View from above orbital plane
View from above satellite
View from above satellite

Ground track
Ground track

The orbit data is extracted from the following two-line orbital elements,

1 14484U 83111B   15059.56026698  .00087740  78379-6  70436-3 0  9996
2 14484 082.8273 076.9816 0137089 061.4959 043.6184 15.59278145612082
Epoch (UTC): 28 February 2015 13:26:47
Eccentricity: 0.0137089
inclination: 82.8273°
perigee height: 297 km
apogee height: 482 km
right ascension of ascending node: 76.9816°
argument of perigee: 61.4959°
revolutions per day: 15.59278145
mean anomaly at epoch: 43.6184°
orbit number at epoch: 61208

The dashed part of the orbit path shows where the satellite is in the earth's shadow,  

DLR